Location: Unspecified
(52.1971°N, 0.0000°E)
Time: 23:00:18
(UTC+00:00)

ISS - Pass Details

Date: 25 May 2019
Orbit: 408 x 418 km, 51.6° (Epoch: 18 June)

Event Time Altitude Azimuth Distance (km) Brightness Sun altitude
Rises 22:56:51 0° 281° (WNW) 2,362 0.4 -15.6°
Reaches altitude 10° 22:58:59 10° 276° (W) 1,499 -0.7 -15.7°
Maximum altitude 23:02:13 45° 202° (SSW) 580 -3.5 -15.8°
Enters shadow 23:02:48 40° 170° (S) 631 -3.4 -15.8°
